Location: Karaa?a�
(36.7158°N, 30.4165°E)
Time: 01:26:54
(UTC+00:00)

Abrixas rocket - Pass Details

Date: 09 April 2020
Orbit: 345 x 352 km, 48.4° (Epoch: 24 May)

Event Time Altitude Azimuth Distance (km) Brightness Sun altitude
Rises 18:29:39 0° 312° (NW) 2,161 7.2 -23.6°
Reaches altitude 10° 18:31:49 10° 324° (NW) 1,319 5.7 -24.0°
Enters shadow 18:33:02 19° 341° (NNW) 919 4.5 -24.2°
